Location: Miramichi City (Newcastle)
(46.9830°N, 65.5670°W)
Time: 07:33:58
(UTC-03:00)

Iridium 12 - Visible Passes

Search period start: 02 September 2015 00:00
Search period end: 12 September 2015 00:00
Orbit: 776 x 779 km, 86.4° (Epoch: 01 September)

Date Brightness Start Highest point End Pass type
(mag) Time Alt. Az. Time Alt. Az. Time Alt. Az.
02 Sep 6.9 20:55:31 10° SSW 21:00:29 43° W 21:05:27 10° N visible
03 Sep 5.8 20:21:38 10° S 20:26:51 76° W 20:32:05 10° N visible
03 Sep 8.9 22:07:18 10° W 22:08:41 11° WNW 22:09:45 10° NW visible
04 Sep 8.5 21:30:56 10° WSW 21:34:38 19° WNW 21:38:11 10° NNW visible
05 Sep 8.7 06:15:39 10° NNE 06:19:23 20° ENE 06:23:16 10° ESE visible
05 Sep 7.6 20:56:06 10° SW 21:00:44 31° WNW 21:05:20 10° NNW visible
06 Sep 9.2 05:43:40 10° NE 05:45:21 12° ENE 05:47:19 10° E visible
06 Sep 6.5 20:21:54 10° SSW 20:27:01 54° W 20:32:08 10° N visible
07 Sep 8.8 21:32:22 10° W 21:35:02 14° WNW 21:37:28 10° NW visible
08 Sep 8.1 06:15:19 10° NNE 06:19:43 27° ENE 06:24:11 10° SE visible
08 Sep 8.2 20:56:54 10° SW 21:01:02 23° WNW 21:05:06 10° NNW visible
09 Sep 8.8 05:42:38 10° NNE 05:45:47 16° ENE 05:49:07 10° ESE visible
09 Sep 7.3 20:22:21 10° SSW 20:27:12 38° W 20:32:05 10° N visible
11 Sep 7.3 06:15:09 10° N 06:19:59 37° ENE 06:24:51 10° SSE visible
11 Sep 8.7 20:58:00 10° WSW 21:01:24 17° WNW 21:04:38 10° NNW visible
